Home > Time Zones > World Clock > Weather > China > Hefei > Past weeks

Flag for China Weather past 2 weeks in Hefei, Anhui, China

Now
72 °F

Fog.


Feels Like: 71 °F
Forecast: 65 / 79 °F
Wind: 8 mph from Southeast

Location: Hefei Airport

Current Time: Apr 1, 2015 at 6:38:52 AM

Latest Report: Apr 1, 2015 at 6:00 AM


Visibility: 3 mi

Pressure: 29.74 "Hg

Humidity: 83%

Dew point: 66 °F

Location of HefeiLocation

Historic Weather in Hefei — Graph

°F

Hefei temperature yesterday

Maximum temperature yesterday: 86 °F (at 1:00 PM)
Minimum temperature yesterday: 61 °F (at 3:00 AM)
Average temperature yesterday: 74 °F

Past Weeks' High & Low Weather Summary

 TemperatureHumidityPressure
High86 °F (Mar 31, 1:00 PM)100% (Mar 17, 4:00 PM)30.48 "Hg (Mar 17, 4:00 PM)
Low43 °F (Mar 24, 5:00 AM)27% (Mar 24, 3:00 PM)29.68 "Hg (Mar 31, 3:00 PM)
Average58 °F73%30.10 "Hg
* Reported Mar 17 5:00 AM — Apr 1 5:00 AM, Hefei, Weather by CustomWeather, © 2015

Note: Actual official high and low records may vary slightly from our data, if they occured in-between our weather recording intervals... More about our weather records

Advertising

Hefei weather history for previous 24 hours

 ConditionsComfort  
Time TempWeatherWind HumidityBarometerVisibility
5:00 AM
Wed, Apr 1
73 °FClear.10 mph78%29.74 "Hg4 mi
4:00 AM72 °FClear.6 mph83%29.74 "Hg4 mi
3:00 AM73 °FClear.6 mph78%29.74 "Hg4 mi
2:00 AM73 °FClear.8 mph78%29.74 "Hg4 mi
1:00 AM73 °FClear.6 mph78%29.77 "Hg4 mi
12:00 AM73 °FClear.8 mph78%29.77 "Hg4 mi
11:00 PM
Tue, Mar 31
75 °FClear.10 mph74%29.77 "Hg4 mi
10:00 PM77 °FClear.10 mph69%29.77 "Hg5 mi
9:00 PM77 °FClear.6 mph69%29.77 "Hg5 mi
8:00 PM77 °FClear.6 mph74%29.74 "Hg10 mi
7:00 PM79 °FClear.8 mph65%29.71 "Hg10 mi
6:00 PM82 °FSunny.8 mph58%29.68 "Hg10 mi
5:00 PM84 °FPassing clouds.10 mph55%29.68 "HgN/A
4:00 PM86 °FPassing clouds.8 mph52%29.68 "HgN/A
3:00 PM86 °FPassing clouds.8 mph52%29.68 "HgN/A
2:00 PM86 °FPassing clouds.8 mph52%29.71 "HgN/A
1:00 PM86 °FPassing clouds.10 mph52%29.71 "HgN/A
12:00 PM84 °FPassing clouds.10 mph55%29.74 "HgN/A
11:00 AM82 °FPassing clouds.10 mph58%29.77 "HgN/A
10:00 AM77 °FClear.10 mph69%29.80 "Hg5 mi
9:00 AM75 °FClear.13 mph69%29.80 "Hg4 mi
8:00 AM70 °FFog.13 mph83%29.80 "Hg3 mi
7:00 AM64 °FFog.8 mph94%29.77 "Hg1 mi
6:00 AM61 °FFog.6 mph100%29.77 "Hg1 mi
Weather by CustomWeather, © 2015

See weather overviewHow to use our weather pages